FLOCK 4G 10

导读

FLOCK 4G 10是美国Planet公司鸽群(Flock)星座4G批次中的一颗卫星,于2025年1月14日发射,运行在约505km、倾角97.4°的近地轨道。该卫星属于立方星,是Planet公司全球高频次对地观测星座的组成部分,旨在提供高频率遥感观测服务。 作为低成本批量发射的小卫星,FLOCK 4G 10延续了鸽群星座设计特点,未配备推力装置,无法主动进行轨道机动。该批次卫星发射中,有一颗卫星发射失败,FLOCK 4G 10目前在轨运行,服务地球观测业务。

基本信息
目录编号:
62670
目录名称:
FLOCK 4G 10
国际标识:
2025-009BP
轨道中心:
EARTH
卫星名称:
FLOCK 4G 10
卫星全名:
FLOCK 4G 10
卫星状态:
在轨 (已飞行598 天)
发射日期:
2025-01-14 UTC
国别 :
美国 (US)
星等 :
--
轨道信息
数据来源 国际轨道数据
星历时间: 2026-09-03T18:47:56+0800
1天前
查看轨道信息
半长轴: 6851.654km
偏心率: 0.0005508
轨道倾角: 97.387°
近地点辐角 68.449°
升交点赤经 327.192°
平近点角 291.733°
近地点: 469.743km
远地点: 477.291km
周期: 94.070分钟
每日圈数: 15.307692
详细信息
使用方式:
暂无
2D轨道图
3D轨道图
轨道高度分析图
轨道倾角分析图
轨道综合分析图
查看轨道综合分析图
交会数据列表
事件ID 空间交会对象 最接近时刻(TCA) 交会距离 交会风险概率(CRP) 交会风险指数(CRI) 操作
CDM_260906-121503-507306-267021
2026-09-06T
12:15:51+0000
1.528 km
极远距离
6.371448E-6 低风险 0.51
CDM_260906-084606-267006-745121
2026-09-06T
08:46:49+0000
1.752 km
极远距离
3.128753E-6 低风险 0.45
CDM_260905-025706-267006-292321
2026-09-05T
02:57:47+0000
2.265 km
极远距离
2.012276E-6 低风险 0.41
CDM_260905-135305-850906-267022
2026-09-05T
13:53:22+0000
2.391 km
极远距离
1.852464E-6 低风险 0.4
CDM_260830-061205-789706-267021
2026-08-30T
06:12:05+0000
2.392 km
极远距离
1.624685E-6 低风险 0.39
CDM_260905-104605-989206-267021
2026-09-05T
10:46:42+0000
2.625 km
极远距离
1.554992E-6 低风险 0.39
CDM_260906-225106-267006-292621
2026-09-06T
22:51:48+0000
2.769 km
极远距离
1.431266E-6 低风险 0.38
CDM_260906-114905-706706-267021
2026-09-06T
11:49:57+0000
2.802 km
极远距离
1.427404E-6 低风险 0.38
CDM_260907-002906-196306-267021
2026-09-07T
00:29:16+0000
2.599 km
极远距离
1.420139E-6 低风险 0.38
CDM_260906-134906-267006-409521
2026-09-06T
13:49:09+0000
2.260 km
极远距离
1.420051E-6 低风险 0.38